STARLINK-36611

Last updated on Sun Mar 15 2026 00:02:07 GMT+0000 (Coordinated Universal Time)

1 67830U 26033K 26073.58335648 -.01942829 00000+0 -19176-1 0 9999 2 67830 42.9989 241.6473 0001469 277.5569 196.1390 15.68110575 5457

Satellite not in orbit